Time,TemperatureF,DewpointF,PressureIn,WindDirection,WindDirectionDegrees,WindSpeedMPH,WindSpeedGustMPH,Humidity,HourlyPrecipIn,Conditions,Clouds,dailyrainin,SoftwareType,DateUTC
2013-07-21 00:01:00,83.4,78.1,29.91,ENE,67,12.0,17.0,84,0.00,,,0.00,VWS V14.01,2013-07-21 06:01:00,
2013-07-21 00:06:00,83.4,78.1,29.91,ENE,76,11.0,17.0,84,0.00,,,0.00,VWS V14.01,2013-07-21 06:06:00,
2013-07-21 00:11:00,83.4,78.1,29.91,ENE,74,7.0,17.0,84,0.00,,,0.00,VWS V14.01,2013-07-21 06:11:00,
2013-07-21 00:16:00,83.4,78.4,29.91,NE,45,8.0,17.0,85,0.00,,,0.00,VWS V14.01,2013-07-21 06:16:00,
2013-07-21 00:21:00,83.4,78.4,29.90,NE,49,8.0,17.0,85,0.00,,,0.00,VWS V14.01,2013-07-21 06:21:00,
2013-07-21 00:26:00,83.4,78.4,29.90,NE,34,5.0,17.0,85,0.00,,,0.00,VWS V14.01,2013-07-21 06:26:00,
2013-07-21 00:31:00,83.4,78.4,29.90,East,96,9.0,13.0,85,0.00,,,0.00,VWS V14.01,2013-07-21 06:31:00,
2013-07-21 00:36:00,83.4,78.1,29.90,NE,43,4.0,17.0,84,0.00,,,0.00,VWS V14.01,2013-07-21 06:36:00,
2013-07-21 00:41:00,83.4,78.1,29.90,East,81,8.0,17.0,84,0.00,,,0.00,VWS V14.01,2013-07-21 06:41:00,
2013-07-21 00:46:00,83.5,77.8,29.89,East,83,6.0,18.0,83,0.00,,,0.00,VWS V14.01,2013-07-21 06:46:00,
2013-07-21 00:51:00,83.5,77.4,29.89,East,83,10.0,18.0,82,0.00,,,0.00,VWS V14.01,2013-07-21 06:51:00,
2013-07-21 00:56:00,83.5,77.4,29.89,NE,49,6.0,18.0,82,0.00,,,0.00,VWS V14.01,2013-07-21 06:56:00,
2013-07-21 01:01:00,83.4,77.3,29.89,ENE,65,6.0,13.0,82,0.00,,,0.00,VWS V14.01,2013-07-21 07:01:00,
2013-07-21 01:06:00,83.4,77.3,29.89,NE,53,11.0,16.0,82,0.00,,,0.00,VWS V14.01,2013-07-21 07:06:00,
2013-07-21 01:11:00,83.5,77.4,29.89,ENE,63,4.0,16.0,82,0.00,,,0.00,VWS V14.01,2013-07-21 07:11:00,
2013-07-21 01:16:00,83.4,77.7,29.89,East,91,10.0,16.0,83,0.00,,,0.00,VWS V14.01,2013-07-21 07:16:00,
2013-07-21 01:21:00,83.3,77.2,29.88,NE,49,4.0,16.0,82,0.00,,,0.00,VWS V14.01,2013-07-21 07:21:00,
2013-07-21 01:26:00,83.3,77.6,29.88,ENE,66,7.0,16.0,83,0.00,,,0.00,VWS V14.01,2013-07-21 07:26:00,
2013-07-21 01:31:00,83.3,77.6,29.88,NE,44,9.0,14.0,83,0.00,,,0.00,VWS V14.01,2013-07-21 07:31:00,
2013-07-21 01:36:00,83.3,77.6,29.88,NE,42,6.0,17.0,83,0.00,,,0.00,VWS V14.01,2013-07-21 07:36:00,
2013-07-21 01:41:00,83.3,77.6,29.88,NE,52,6.0,17.0,83,0.00,,,0.00,VWS V14.01,2013-07-21 07:41:00,
2013-07-21 01:46:00,83.3,77.6,29.88,NE,56,5.0,17.0,83,0.00,,,0.00,VWS V14.01,2013-07-21 07:46:00,
2013-07-21 01:51:00,83.4,78.1,29.88,NE,44,3.0,17.0,84,0.00,,,0.00,VWS V14.01,2013-07-21 07:51:00,
2013-07-21 01:56:00,83.3,77.2,29.88,ENE,77,13.0,17.0,82,0.00,,,0.00,VWS V14.01,2013-07-21 07:56:00,
2013-07-21 02:01:00,83.4,77.7,29.88,ENE,65,6.0,9.0,83,0.00,,,0.00,VWS V14.01,2013-07-21 08:01:00,
2013-07-21 02:06:00,83.4,77.7,29.88,NE,38,14.0,16.0,83,0.00,,,0.00,VWS V14.01,2013-07-21 08:06:00,
2013-07-21 02:11:00,83.3,77.2,29.88,ENE,66,11.0,16.0,82,0.00,,,0.00,VWS V14.01,2013-07-21 08:11:00,
2013-07-21 02:16:00,83.4,77.7,29.88,NE,56,11.0,20.0,83,0.00,,,0.00,VWS V14.01,2013-07-21 08:16:00,
2013-07-21 02:21:00,83.3,77.2,29.88,ENE,58,9.0,23.0,82,0.00,,,0.00,VWS V14.01,2013-07-21 08:21:00,
2013-07-21 02:26:00,83.3,77.2,29.88,ENE,72,7.0,23.0,82,0.00,,,0.00,VWS V14.01,2013-07-21 08:26:00,
2013-07-21 02:31:00,83.3,77.2,29.88,NE,44,4.0,12.0,82,0.00,,,0.00,VWS V14.01,2013-07-21 08:31:00,
2013-07-21 02:36:00,83.3,77.2,29.88,ENE,58,7.0,20.0,82,0.00,,,0.00,VWS V14.01,2013-07-21 08:36:00,
2013-07-21 02:41:00,83.3,77.2,29.88,ENE,68,9.0,20.0,82,0.00,,,0.00,VWS V14.01,2013-07-21 08:41:00,
2013-07-21 02:46:00,83.4,77.3,29.88,East,79,10.0,20.0,82,0.00,,,0.00,VWS V14.01,2013-07-21 08:46:00,
2013-07-21 02:51:00,83.4,77.0,29.87,NE,34,7.0,20.0,81,0.00,,,0.00,VWS V14.01,2013-07-21 08:51:00,
2013-07-21 02:56:00,83.5,76.7,29.87,ENE,72,9.0,20.0,80,0.00,,,0.00,VWS V14.01,2013-07-21 08:56:00,
2013-07-21 03:01:00,83.6,77.2,29.88,NE,54,3.0,7.0,81,0.00,,,0.00,VWS V14.01,2013-07-21 09:01:00,
2013-07-21 03:06:00,83.6,77.2,29.87,NE,49,9.0,14.0,81,0.00,,,0.00,VWS V14.01,2013-07-21 09:06:00,
2013-07-21 03:11:00,83.5,77.4,29.87,ENE,62,7.0,14.0,82,0.00,,,0.00,VWS V14.01,2013-07-21 09:11:00,
2013-07-21 03:16:00,83.4,77.7,29.87,ENE,72,7.0,16.0,83,0.00,,,0.00,VWS V14.01,2013-07-21 09:16:00,
2013-07-21 03:21:00,83.4,77.7,29.87,East,79,10.0,16.0,83,0.00,,,0.00,VWS V14.01,2013-07-21 09:21:00,
2013-07-21 03:26:00,83.3,77.6,29.88,NE,47,10.0,16.0,83,0.00,,,0.00,VWS V14.01,2013-07-21 09:26:00,
2013-07-21 03:31:00,83.3,78.0,29.88,NE,46,9.0,15.0,84,0.00,,,0.00,VWS V14.01,2013-07-21 09:31:00,
2013-07-21 03:36:00,83.2,77.5,29.88,ENE,58,11.0,15.0,83,0.00,,,0.00,VWS V14.01,2013-07-21 09:36:00,
2013-07-21 03:41:00,83.2,77.5,29.88,ENE,68,9.0,16.0,83,0.00,,,0.00,VWS V14.01,2013-07-21 09:41:00,
2013-07-21 03:46:00,83.2,77.5,29.88,ENE,76,3.0,16.0,83,0.00,,,0.00,VWS V14.01,2013-07-21 09:46:00,
2013-07-21 03:51:00,83.2,77.5,29.88,NNE,16,8.0,16.0,83,0.00,,,0.00,VWS V14.01,2013-07-21 09:51:00,
2013-07-21 03:56:00,83.2,77.5,29.88,NE,34,10.0,16.0,83,0.00,,,0.00,VWS V14.01,2013-07-21 09:56:00,
2013-07-21 04:01:00,83.2,77.1,29.88,East,84,9.0,11.0,82,0.00,,,0.00,VWS V14.01,2013-07-21 10:01:00,
2013-07-21 04:06:00,83.2,77.9,29.88,ENE,66,10.0,15.0,84,0.00,,,0.00,VWS V14.01,2013-07-21 10:06:00,
2013-07-21 04:11:00,83.1,77.8,29.88,NNE,30,16.0,16.0,84,0.00,,,0.00,VWS V14.01,2013-07-21 10:11:00,
2013-07-21 04:16:00,83.1,77.8,29.88,ENE,61,5.0,18.0,84,0.00,,,0.00,VWS V14.01,2013-07-21 10:16:00,
2013-07-21 04:21:00,83.0,77.3,29.88,ESE,108,7.0,19.0,83,0.00,,,0.00,VWS V14.01,2013-07-21 10:21:00,
2013-07-21 04:26:00,83.0,77.7,29.88,NNE,30,9.0,19.0,84,0.00,,,0.00,VWS V14.01,2013-07-21 10:26:00,
2013-07-21 04:31:00,82.9,77.6,29.88,ENE,69,11.0,12.0,84,0.00,,,0.00,VWS V14.01,2013-07-21 10:31:00,
2013-07-21 04:36:00,82.9,77.6,29.88,East,82,8.0,14.0,84,0.00,,,0.00,VWS V14.01,2013-07-21 10:36:00,
2013-07-21 04:41:00,82.9,77.2,29.88,ENE,59,9.0,19.0,83,0.00,,,0.00,VWS V14.01,2013-07-21 10:41:00,
2013-07-21 04:46:00,83.0,77.3,29.88,ESE,103,5.0,19.0,83,0.00,,,0.00,VWS V14.01,2013-07-21 10:46:00,
2013-07-21 04:51:00,83.0,77.7,29.88,East,84,14.0,19.0,84,0.00,,,0.00,VWS V14.01,2013-07-21 10:51:00,
2013-07-21 04:56:00,83.0,77.7,29.88,East,82,10.0,19.0,84,0.00,,,0.00,VWS V14.01,2013-07-21 10:56:00,
2013-07-21 05:01:00,82.9,77.6,29.88,ENE,59,7.0,12.0,84,0.00,,,0.00,VWS V14.01,2013-07-21 11:01:00,
2013-07-21 05:06:00,82.9,77.2,29.88,ENE,73,14.0,18.0,83,0.00,,,0.00,VWS V14.01,2013-07-21 11:06:00,
2013-07-21 05:11:00,83.0,76.9,29.89,ENE,63,10.0,19.0,82,0.00,,,0.00,VWS V14.01,2013-07-21 11:11:00,
2013-07-21 05:16:00,83.0,76.9,29.89,ENE,60,13.0,19.0,82,0.00,,,0.00,VWS V14.01,2013-07-21 11:16:00,
2013-07-21 05:21:00,83.2,77.1,29.89,NE,56,12.0,20.0,82,0.00,,,0.00,VWS V14.01,2013-07-21 11:21:00,
2013-07-21 05:26:00,83.2,77.1,29.89,NE,52,14.0,20.0,82,0.00,,,0.00,VWS V14.01,2013-07-21 11:26:00,
2013-07-21 05:31:00,83.2,76.8,29.89,ENE,68,8.0,9.0,81,0.00,,,0.00,VWS V14.01,2013-07-21 11:31:00,
2013-07-21 05:36:00,83.2,76.8,29.90,NE,49,8.0,17.0,81,0.00,,,0.00,VWS V14.01,2013-07-21 11:36:00,
2013-07-21 05:41:00,83.3,76.5,29.90,East,87,11.0,18.0,80,0.00,,,0.00,VWS V14.01,2013-07-21 11:41:00,
2013-07-21 05:46:00,83.4,76.6,29.90,ENE,74,12.0,18.0,80,0.00,,,0.00,VWS V14.01,2013-07-21 11:46:00,
2013-07-21 05:51:00,83.5,76.3,29.90,NNE,29,6.0,18.0,79,0.00,,,0.00,VWS V14.01,2013-07-21 11:51:00,
2013-07-21 05:56:00,83.5,76.7,29.90,ENE,68,7.0,18.0,80,0.00,,,0.00,VWS V14.01,2013-07-21 11:56:00,
2013-07-21 06:01:00,83.6,76.8,29.90,ENE,63,11.0,11.0,80,0.00,,,0.00,VWS V14.01,2013-07-21 12:01:00,
2013-07-21 06:06:00,83.7,76.9,29.90,ENE,74,13.0,18.0,80,0.00,,,0.00,VWS V14.01,2013-07-21 12:06:00,
2013-07-21 06:11:00,83.7,77.2,29.90,ENE,58,10.0,18.0,81,0.00,,,0.00,VWS V14.01,2013-07-21 12:11:00,
2013-07-21 06:16:00,83.7,77.2,29.91,East,84,10.0,18.0,81,0.00,,,0.00,VWS V14.01,2013-07-21 12:16:00,
2013-07-21 06:21:00,83.8,77.3,29.91,ENE,75,12.0,18.0,81,0.00,,,0.00,VWS V14.01,2013-07-21 12:21:00,
2013-07-21 06:26:00,83.9,77.8,29.91,ENE,68,12.0,18.0,82,0.00,,,0.00,VWS V14.01,2013-07-21 12:26:00,
2013-07-21 06:31:00,83.9,77.1,29.91,ENE,58,13.0,14.0,80,0.00,,,0.00,VWS V14.01,2013-07-21 12:31:00,
2013-07-21 06:36:00,84.0,76.8,29.91,ENE,65,16.0,21.0,79,0.00,,,0.00,VWS V14.01,2013-07-21 12:36:00,
2013-07-21 06:41:00,84.2,76.6,29.91,ESE,117,5.0,21.0,78,0.00,,,0.00,VWS V14.01,2013-07-21 12:41:00,
2013-07-21 06:46:00,84.4,76.8,29.91,ENE,70,17.0,25.0,78,0.00,,,0.00,VWS V14.01,2013-07-21 12:46:00,
2013-07-21 06:51:00,84.4,77.2,29.92,NE,51,9.0,25.0,79,0.00,,,0.00,VWS V14.01,2013-07-21 12:51:00,
2013-07-21 06:56:00,84.4,77.2,29.92,ENE,68,7.0,25.0,79,0.00,,,0.00,VWS V14.01,2013-07-21 12:56:00,
2013-07-21 07:01:00,84.5,77.3,29.92,ENE,70,11.0,15.0,79,0.00,,,0.00,VWS V14.01,2013-07-21 13:01:00,
2013-07-21 07:06:00,84.5,77.3,29.92,East,94,11.0,17.0,79,0.00,,,0.00,VWS V14.01,2013-07-21 13:06:00,
2013-07-21 07:11:00,84.6,77.4,29.92,NE,49,8.0,18.0,79,0.00,,,0.00,VWS V14.01,2013-07-21 13:11:00,
2013-07-21 07:16:00,84.7,77.5,29.92,ENE,72,10.0,18.0,79,0.00,,,0.00,VWS V14.01,2013-07-21 13:16:00,
2013-07-21 07:21:00,84.8,77.2,29.92,NE,34,12.0,18.0,78,0.00,,,0.00,VWS V14.01,2013-07-21 13:21:00,
2013-07-21 07:40:00,84.9,77.7,29.94,ENE,70,11.0,19.0,79,0.00,,,0.00,VWS V14.01,2013-07-21 13:40:00,
2013-07-21 07:45:00,85.0,77.8,29.94,ENE,59,11.0,19.0,79,0.00,,,0.00,VWS V14.01,2013-07-21 13:45:00,
2013-07-21 07:50:00,85.0,77.8,29.94,ENE,68,17.0,21.0,79,0.00,,,0.00,VWS V14.01,2013-07-21 13:50:00,
2013-07-21 07:55:00,85.1,77.9,29.94,East,87,10.0,21.0,79,0.00,,,0.00,VWS V14.01,2013-07-21 13:55:00,
2013-07-21 08:00:00,85.3,78.8,29.95,East,80,14.0,17.0,81,0.00,,,0.00,VWS V14.01,2013-07-21 14:00:00,
2013-07-21 08:05:00,85.3,78.1,29.95,NE,56,10.0,19.0,79,0.00,,,0.00,VWS V14.01,2013-07-21 14:05:00,
2013-07-21 08:10:00,85.4,78.2,29.95,ENE,67,14.0,19.0,79,0.00,,,0.00,VWS V14.01,2013-07-21 14:10:00,
2013-07-21 08:15:00,85.5,78.2,29.95,East,79,15.0,19.0,79,0.00,,,0.00,VWS V14.01,2013-07-21 14:15:00,
2013-07-21 08:20:00,85.6,78.3,29.95,East,79,14.0,19.0,79,0.00,,,0.00,VWS V14.01,2013-07-21 14:20:00,
2013-07-21 08:25:00,85.5,77.5,29.95,ENE,58,13.0,19.0,77,0.00,,,0.00,VWS V14.01,2013-07-21 14:25:00,
2013-07-21 08:30:00,85.5,77.1,29.95,East,91,9.0,17.0,76,0.00,,,0.00,VWS V14.01,2013-07-21 14:30:00,
2013-07-21 08:35:00,85.6,77.2,29.95,ENE,77,10.0,22.0,76,0.00,,,0.00,VWS V14.01,2013-07-21 14:35:00,
2013-07-21 08:40:00,85.7,76.9,29.95,ENE,66,5.0,22.0,75,0.00,,,0.00,VWS V14.01,2013-07-21 14:40:00,
2013-07-21 08:45:00,85.8,76.2,29.95,ENE,63,12.0,27.0,73,0.00,,,0.00,VWS V14.01,2013-07-21 14:45:00,
2013-07-21 08:50:00,85.9,76.2,29.96,NNE,25,16.0,27.0,73,0.00,,,0.00,VWS V14.01,2013-07-21 14:50:00,
2013-07-21 08:55:00,85.9,76.7,29.96,East,79,14.0,27.0,74,0.00,,,0.00,VWS V14.01,2013-07-21 14:55:00,
2013-07-21 09:00:00,86.1,77.2,29.96,ENE,63,10.0,12.0,75,0.00,,,0.00,VWS V14.01,2013-07-21 15:00:00,
2013-07-21 09:05:00,86.2,76.9,29.96,ENE,71,9.0,18.0,74,0.00,,,0.00,VWS V14.01,2013-07-21 15:05:00,
2013-07-21 09:10:00,86.5,77.2,29.96,East,81,10.0,19.0,74,0.00,,,0.00,VWS V14.01,2013-07-21 15:10:00,
2013-07-21 09:15:00,86.4,77.1,29.96,East,93,9.0,19.0,74,0.00,,,0.00,VWS V14.01,2013-07-21 15:15:00,
2013-07-21 09:20:00,86.6,77.3,29.96,ENE,66,8.0,22.0,74,0.00,,,0.00,VWS V14.01,2013-07-21 15:20:00,
2013-07-21 09:25:00,86.6,77.3,29.96,ENE,67,10.0,22.0,74,0.00,,,0.00,VWS V14.01,2013-07-21 15:25:00,
2013-07-21 09:30:00,86.7,77.0,29.96,NNE,15,10.0,22.0,73,0.00,,,0.00,VWS V14.01,2013-07-21 15:30:00,
2013-07-21 09:35:00,86.6,76.5,29.96,East,79,13.0,22.0,72,0.00,,,0.00,VWS V14.01,2013-07-21 15:35:00,
2013-07-21 09:40:00,86.7,76.6,29.96,ENE,63,13.0,22.0,72,0.00,,,0.00,VWS V14.01,2013-07-21 15:40:00,
2013-07-21 09:45:00,86.9,76.4,29.96,ENE,65,18.0,22.0,71,0.00,,,0.00,VWS V14.01,2013-07-21 15:45:00,
2013-07-21 09:50:00,86.8,76.3,29.96,ENE,77,9.0,22.0,71,0.00,,,0.00,VWS V14.01,2013-07-21 15:50:00,
2013-07-21 09:55:00,86.9,76.8,29.96,ENE,68,11.0,22.0,72,0.00,,,0.00,VWS V14.01,2013-07-21 15:55:00,
2013-07-21 10:00:00,86.9,76.8,29.96,NE,54,14.0,15.0,72,0.00,,,0.00,VWS V14.01,2013-07-21 16:00:00,
2013-07-21 10:05:00,86.8,77.1,29.96,NE,49,8.0,18.0,73,0.00,,,0.00,VWS V14.01,2013-07-21 16:05:00,
2013-07-21 10:10:00,87.2,77.5,29.96,ENE,68,8.0,18.0,73,0.00,,,0.00,VWS V14.01,2013-07-21 16:10:00,
2013-07-21 10:15:00,87.4,77.3,29.96,ENE,77,12.0,18.0,72,0.00,,,0.00,VWS V14.01,2013-07-21 16:15:00,
2013-07-21 10:20:00,87.3,77.6,29.96,East,98,8.0,18.0,73,0.00,,,0.00,VWS V14.01,2013-07-21 16:20:00,
2013-07-21 10:25:00,87.4,77.7,29.96,ESE,108,11.0,18.0,73,0.00,,,0.00,VWS V14.01,2013-07-21 16:25:00,
2013-07-21 10:30:00,87.3,77.2,29.96,ENE,76,11.0,18.0,72,0.00,,,0.00,VWS V14.01,2013-07-21 16:30:00,
2013-07-21 10:35:00,86.9,77.2,29.96,East,98,15.0,19.0,73,0.00,,,0.00,VWS V14.01,2013-07-21 16:35:00,
2013-07-21 10:40:00,86.8,77.1,29.96,ENE,60,11.0,19.0,73,0.00,,,0.00,VWS V14.01,2013-07-21 16:40:00,
2013-07-21 10:45:00,87.0,77.7,29.95,ENE,65,17.0,20.0,74,0.00,,,0.00,VWS V14.01,2013-07-21 16:45:00,
2013-07-21 10:50:00,87.2,77.9,29.95,NNE,26,7.0,20.0,74,0.00,,,0.00,VWS V14.01,2013-07-21 16:50:00,
2013-07-21 10:55:00,87.2,78.3,29.95,NE,52,8.0,20.0,75,0.00,,,0.00,VWS V14.01,2013-07-21 16:55:00,
2013-07-21 11:00:00,87.7,78.8,29.94,ENE,65,6.0,8.0,75,0.00,,,0.00,VWS V14.01,2013-07-21 17:00:00,
2013-07-21 11:05:00,87.5,78.2,29.94,ENE,58,7.0,17.0,74,0.00,,,0.00,VWS V14.01,2013-07-21 17:05:00,
2013-07-21 11:10:00,87.6,78.3,29.94,East,86,9.0,17.0,74,0.00,,,0.00,VWS V14.01,2013-07-21 17:10:00,
2013-07-21 11:15:00,87.4,78.1,29.94,NE,52,12.0,19.0,74,0.00,,,0.00,VWS V14.01,2013-07-21 17:15:00,
2013-07-21 11:20:00,87.3,78.0,29.94,ENE,75,15.0,19.0,74,0.00,,,0.00,VWS V14.01,2013-07-21 17:20:00,
2013-07-21 11:25:00,87.4,78.1,29.94,NE,53,16.0,19.0,74,0.00,,,0.00,VWS V14.01,2013-07-21 17:25:00,
2013-07-21 11:30:00,87.4,78.1,29.94,NE,49,10.0,12.0,74,0.00,,,0.00,VWS V14.01,2013-07-21 17:30:00,
2013-07-21 11:35:00,87.6,78.7,29.93,East,91,12.0,20.0,75,0.00,,,0.00,VWS V14.01,2013-07-21 17:35:00,
2013-07-21 11:40:00,87.6,78.3,29.93,ENE,70,9.0,20.0,74,0.00,,,0.00,VWS V14.01,2013-07-21 17:40:00,
2013-07-21 11:45:00,87.7,78.4,29.93,East,87,11.0,20.0,74,0.00,,,0.00,VWS V14.01,2013-07-21 17:45:00,
2013-07-21 11:50:00,88.2,78.9,29.93,NNW,333,10.0,20.0,74,0.00,,,0.00,VWS V14.01,2013-07-21 17:50:00,
2013-07-21 11:55:00,87.9,77.8,29.93,NE,52,19.0,22.0,72,0.00,,,0.00,VWS V14.01,2013-07-21 17:55:00,
2013-07-21 12:00:00,87.7,78.8,29.93,NE,53,11.0,15.0,75,0.00,,,0.00,VWS V14.01,2013-07-21 18:00:00,
2013-07-21 12:05:00,87.8,78.1,29.93,NE,49,12.0,21.0,73,0.00,,,0.00,VWS V14.01,2013-07-21 18:05:00,
2013-07-21 12:10:00,87.8,77.7,29.92,NE,46,12.0,21.0,72,0.00,,,0.00,VWS V14.01,2013-07-21 18:10:00,
2013-07-21 12:15:00,88.0,78.7,29.92,NE,56,7.0,22.0,74,0.00,,,0.00,VWS V14.01,2013-07-21 18:15:00,
2013-07-21 12:20:00,88.5,78.7,29.92,NNE,20,15.0,22.0,73,0.00,,,0.00,VWS V14.01,2013-07-21 18:20:00,
2013-07-21 12:25:00,88.6,78.8,29.92,ENE,67,3.0,22.0,73,0.00,,,0.00,VWS V14.01,2013-07-21 18:25:00,
2013-07-21 12:30:00,88.7,78.1,29.92,NNE,27,13.0,13.0,71,0.00,,,0.00,VWS V14.01,2013-07-21 18:30:00,
2013-07-21 12:35:00,88.4,78.2,29.92,East,84,11.0,17.0,72,0.00,,,0.00,VWS V14.01,2013-07-21 18:35:00,
2013-07-21 12:40:00,88.1,77.9,29.92,ENE,65,13.0,21.0,72,0.00,,,0.00,VWS V14.01,2013-07-21 18:40:00,
2013-07-21 12:45:00,88.3,78.6,29.92,ENE,64,4.0,21.0,73,0.00,,,0.00,VWS V14.01,2013-07-21 18:45:00,
2013-07-21 12:50:00,88.6,78.4,29.91,NNE,31,4.0,21.0,72,0.00,,,0.00,VWS V14.01,2013-07-21 18:50:00,
2013-07-21 12:55:00,88.7,78.9,29.92,ENE,63,3.0,21.0,73,0.00,,,0.00,VWS V14.01,2013-07-21 18:55:00,
2013-07-21 13:00:00,88.8,79.0,29.91,ENE,65,10.0,10.0,73,0.00,,,0.00,VWS V14.01,2013-07-21 19:00:00,
2013-07-21 13:05:00,88.7,79.3,29.91,ENE,77,11.0,16.0,74,0.00,,,0.00,VWS V14.01,2013-07-21 19:05:00,
2013-07-21 13:10:00,88.3,78.6,29.91,ENE,65,14.0,20.0,73,0.00,,,0.00,VWS V14.01,2013-07-21 19:10:00,
2013-07-21 13:15:00,88.4,79.1,29.91,NE,49,9.0,20.0,74,0.00,,,0.00,VWS V14.01,2013-07-21 19:15:00,
2013-07-21 13:20:00,88.2,78.4,29.91,North,360,17.0,20.0,73,0.00,,,0.00,VWS V14.01,2013-07-21 19:20:00,
2013-07-21 13:25:00,88.2,78.4,29.91,NNE,33,10.0,20.0,73,0.00,,,0.00,VWS V14.01,2013-07-21 19:25:00,
2013-07-21 13:30:00,88.2,78.0,29.91,NE,47,5.0,6.0,72,0.00,,,0.00,VWS V14.01,2013-07-21 19:30:00,
2013-07-21 13:35:00,88.6,78.0,29.91,East,87,14.0,18.0,71,0.00,,,0.00,VWS V14.01,2013-07-21 19:35:00,
2013-07-21 13:40:00,88.5,78.3,29.90,NE,56,11.0,18.0,72,0.00,,,0.00,VWS V14.01,2013-07-21 19:40:00,
2013-07-21 13:45:00,88.4,78.2,29.91,ENE,75,11.0,18.0,72,0.00,,,0.00,VWS V14.01,2013-07-21 19:45:00,
2013-07-21 13:50:00,88.5,78.3,29.90,NE,44,7.0,18.0,72,0.00,,,0.00,VWS V14.01,2013-07-21 19:50:00,
2013-07-21 13:55:00,88.3,78.1,29.90,NE,49,8.0,18.0,72,0.00,,,0.00,VWS V14.01,2013-07-21 19:55:00,
2013-07-21 14:00:00,88.4,79.1,29.90,East,86,8.0,18.0,74,0.00,,,0.00,VWS V14.01,2013-07-21 20:00:00,
2013-07-21 14:05:00,88.4,78.7,29.90,NNE,13,13.0,21.0,73,0.00,,,0.00,VWS V14.01,2013-07-21 20:05:00,
2013-07-21 14:10:00,88.3,78.1,29.90,NE,46,8.0,21.0,72,0.00,,,0.00,VWS V14.01,2013-07-21 20:10:00,
2013-07-21 14:15:00,88.4,78.2,29.89,ENE,73,9.0,21.0,72,0.00,,,0.00,VWS V14.01,2013-07-21 20:15:00,
2013-07-21 14:20:00,88.6,78.8,29.89,NE,47,18.0,21.0,73,0.00,,,0.00,VWS V14.01,2013-07-21 20:20:00,
2013-07-21 14:25:00,88.1,78.8,29.89,ENE,63,12.0,22.0,74,0.00,,,0.00,VWS V14.01,2013-07-21 20:25:00,
2013-07-21 14:30:00,88.4,78.7,29.89,NE,52,8.0,22.0,73,0.00,,,0.00,VWS V14.01,2013-07-21 20:30:00,
2013-07-21 14:35:00,87.9,78.2,29.88,NE,45,17.0,24.0,73,0.00,,,0.00,VWS V14.01,2013-07-21 20:35:00,
2013-07-21 14:40:00,87.7,78.0,29.88,East,80,16.0,24.0,73,0.00,,,0.00,VWS V14.01,2013-07-21 20:40:00,
2013-07-21 14:45:00,87.8,78.1,29.88,ENE,65,8.0,24.0,73,0.00,,,0.00,VWS V14.01,2013-07-21 20:45:00,
2013-07-21 14:50:00,87.9,77.8,29.88,NNE,29,4.0,24.0,72,0.00,,,0.00,VWS V14.01,2013-07-21 20:50:00,
2013-07-21 14:55:00,87.8,77.7,29.88,North,8,13.0,24.0,72,0.00,,,0.00,VWS V14.01,2013-07-21 20:55:00,
2013-07-21 15:00:00,87.9,78.2,29.88,NNE,20,5.0,27.0,73,0.00,,,0.00,VWS V14.01,2013-07-21 21:00:00,
2013-07-21 15:05:00,88.0,78.3,29.87,NE,49,7.0,18.0,73,0.00,,,0.00,VWS V14.01,2013-07-21 21:05:00,
2013-07-21 15:10:00,87.7,78.0,29.87,ESE,115,9.0,23.0,73,0.00,,,0.00,VWS V14.01,2013-07-21 21:10:00,
2013-07-21 15:15:00,87.6,77.9,29.87,NNE,26,14.0,23.0,73,0.00,,,0.00,VWS V14.01,2013-07-21 21:15:00,
2013-07-21 15:20:00,87.8,78.9,29.87,NE,44,5.0,23.0,75,0.00,,,0.00,VWS V14.01,2013-07-21 21:20:00,
2013-07-21 15:25:00,87.7,78.4,29.87,North,11,5.0,23.0,74,0.00,,,0.00,VWS V14.01,2013-07-21 21:25:00,
2013-07-21 15:30:00,87.7,78.4,29.87,East,84,8.0,23.0,74,0.00,,,0.00,VWS V14.01,2013-07-21 21:30:00,
2013-07-21 15:35:00,87.4,78.1,29.87,NE,53,13.0,22.0,74,0.00,,,0.00,VWS V14.01,2013-07-21 21:35:00,
2013-07-21 15:40:00,87.5,78.6,29.87,NE,53,11.0,22.0,75,0.00,,,0.00,VWS V14.01,2013-07-21 21:40:00,
2013-07-21 15:45:00,87.4,78.5,29.87,ENE,58,7.0,22.0,75,0.00,,,0.00,VWS V14.01,2013-07-21 21:45:00,
2013-07-21 15:50:00,87.5,78.2,29.87,NE,55,8.0,22.0,74,0.00,,,0.00,VWS V14.01,2013-07-21 21:50:00,
2013-07-21 15:55:00,87.5,78.6,29.87,ENE,63,7.0,22.0,75,0.00,,,0.00,VWS V14.01,2013-07-21 21:55:00,
2013-07-21 16:00:00,87.5,78.6,29.87,East,89,13.0,22.0,75,0.00,,,0.00,VWS V14.01,2013-07-21 22:00:00,
2013-07-21 16:05:00,87.2,78.3,29.87,North,352,7.0,21.0,75,0.00,,,0.00,VWS V14.01,2013-07-21 22:05:00,
2013-07-21 16:10:00,87.1,78.2,29.86,ENE,61,8.0,21.0,75,0.00,,,0.00,VWS V14.01,2013-07-21 22:10:00,
2013-07-21 16:15:00,87.0,78.9,29.87,NE,37,13.0,24.0,77,0.00,,,0.00,VWS V14.01,2013-07-21 22:15:00,
2013-07-21 16:20:00,86.9,78.8,29.86,NNE,16,13.0,24.0,77,0.00,,,0.00,VWS V14.01,2013-07-21 22:20:00,
2013-07-21 16:25:00,86.8,78.7,29.86,NE,41,11.0,24.0,77,0.00,,,0.00,VWS V14.01,2013-07-21 22:25:00,
2013-07-21 16:30:00,86.6,78.5,29.87,ENE,70,11.0,11.0,77,0.00,,,0.00,VWS V14.01,2013-07-21 22:30:00,
2013-07-21 16:35:00,86.6,78.1,29.86,North,359,9.0,20.0,76,0.00,,,0.00,VWS V14.01,2013-07-21 22:35:00,
2013-07-21 16:40:00,86.5,78.0,29.87,NE,41,16.0,20.0,76,0.00,,,0.00,VWS V14.01,2013-07-21 22:40:00,
2013-07-21 16:45:00,86.4,77.5,29.86,East,79,5.0,20.0,75,0.00,,,0.00,VWS V14.01,2013-07-21 22:45:00,
2013-07-21 16:50:00,86.5,78.0,29.87,NNE,31,8.0,20.0,76,0.00,,,0.00,VWS V14.01,2013-07-21 22:50:00,
2013-07-21 16:55:00,86.4,77.9,29.87,ENE,73,20.0,25.0,76,0.00,,,0.00,VWS V14.01,2013-07-21 22:55:00,
2013-07-21 17:00:00,86.4,77.9,29.87,NW,307,9.0,9.0,76,0.00,,,0.00,VWS V14.01,2013-07-21 23:00:00,
2013-07-21 17:05:00,86.2,78.2,29.87,NE,41,11.0,19.0,77,0.00,,,0.00,VWS V14.01,2013-07-21 23:05:00,
2013-07-21 17:10:00,86.2,78.2,29.87,NE,55,22.0,22.0,77,0.00,,,0.00,VWS V14.01,2013-07-21 23:10:00,
2013-07-21 17:15:00,86.0,77.9,29.87,ENE,60,11.0,22.0,77,0.00,,,0.00,VWS V14.01,2013-07-21 23:15:00,
2013-07-21 17:20:00,85.9,77.9,29.87,NE,52,12.0,22.0,77,0.00,,,0.00,VWS V14.01,2013-07-21 23:20:00,
2013-07-21 17:25:00,85.9,78.2,29.87,ESE,104,6.0,22.0,78,0.00,,,0.00,VWS V14.01,2013-07-21 23:25:00,
2013-07-21 17:30:00,85.7,77.7,29.87,ENE,75,6.0,7.0,77,0.00,,,0.00,VWS V14.01,2013-07-21 23:30:00,
2013-07-21 17:35:00,85.6,78.0,29.87,NNE,18,7.0,18.0,78,0.00,,,0.00,VWS V14.01,2013-07-21 23:35:00,
2013-07-21 17:40:00,85.6,78.0,29.87,NE,56,9.0,21.0,78,0.00,,,0.00,VWS V14.01,2013-07-21 23:40:00,
2013-07-21 17:45:00,85.4,77.8,29.87,NNE,15,4.0,21.0,78,0.00,,,0.00,VWS V14.01,2013-07-21 23:45:00,
2013-07-21 17:50:00,85.4,78.2,29.87,ENE,65,9.0,21.0,79,0.00,,,0.00,VWS V14.01,2013-07-21 23:50:00,
2013-07-21 17:55:00,85.2,77.9,29.88,ENE,62,8.0,21.0,79,0.00,,,0.00,VWS V14.01,2013-07-21 23:55:00,
2013-07-21 18:00:00,85.1,77.9,29.88,East,84,9.0,10.0,79,0.00,,,0.00,VWS V14.01,2013-07-22 00:00:00,
2013-07-21 18:05:00,85.0,78.1,29.88,North,357,6.0,18.0,80,0.00,,,0.00,VWS V14.01,2013-07-22 00:05:00,
2013-07-21 18:10:00,84.9,78.0,29.88,ENE,66,9.0,18.0,80,0.00,,,0.00,VWS V14.01,2013-07-22 00:10:00,
2013-07-21 18:15:00,84.7,77.8,29.88,ENE,61,7.0,20.0,80,0.00,,,0.00,VWS V14.01,2013-07-22 00:15:00,
2013-07-21 18:20:00,84.7,77.8,29.89,NE,53,9.0,20.0,80,0.00,,,0.00,VWS V14.01,2013-07-22 00:20:00,
2013-07-21 18:25:00,84.7,77.5,29.89,NE,46,8.0,21.0,79,0.00,,,0.00,VWS V14.01,2013-07-22 00:25:00,
2013-07-21 18:30:00,84.8,77.6,29.89,East,96,8.0,16.0,79,0.00,,,0.00,VWS V14.01,2013-07-22 00:30:00,
2013-07-21 18:35:00,84.8,77.9,29.89,SSE,157,11.0,17.0,80,0.00,,,0.00,VWS V14.01,2013-07-22 00:35:00,
2013-07-21 18:40:00,84.7,77.8,29.89,NNW,346,6.0,18.0,80,0.00,,,0.00,VWS V14.01,2013-07-22 00:40:00,
2013-07-21 18:45:00,84.7,77.5,29.90,NE,54,11.0,21.0,79,0.00,,,0.00,VWS V14.01,2013-07-22 00:45:00,
2013-07-21 18:50:00,84.7,77.8,29.89,ENE,68,8.0,21.0,80,0.00,,,0.00,VWS V14.01,2013-07-22 00:50:00,
2013-07-21 18:55:00,84.6,77.8,29.90,ENE,64,10.0,21.0,80,0.00,,,0.00,VWS V14.01,2013-07-22 00:55:00,
2013-07-21 19:00:00,84.6,77.4,29.90,ENE,72,11.0,12.0,79,0.00,,,0.00,VWS V14.01,2013-07-22 01:00:00,
2013-07-21 19:05:00,84.6,77.8,29.90,NNE,31,7.0,25.0,80,0.00,,,0.00,VWS V14.01,2013-07-22 01:05:00,
2013-07-21 19:10:00,84.6,77.8,29.90,East,98,9.0,26.0,80,0.00,,,0.00,VWS V14.01,2013-07-22 01:10:00,
2013-07-21 19:15:00,84.5,78.0,29.91,ENE,68,11.0,26.0,81,0.00,,,0.00,VWS V14.01,2013-07-22 01:15:00,
2013-07-21 19:20:00,84.5,78.0,29.91,ENE,77,8.0,26.0,81,0.00,,,0.00,VWS V14.01,2013-07-22 01:20:00,
2013-07-21 19:25:00,84.4,77.9,29.91,East,84,11.0,26.0,81,0.00,,,0.00,VWS V14.01,2013-07-22 01:25:00,
2013-07-21 19:30:00,84.4,78.3,29.91,NNE,20,14.0,14.0,82,0.00,,,0.00,VWS V14.01,2013-07-22 01:30:00,
2013-07-21 19:35:00,84.3,78.2,29.91,ENE,59,8.0,16.0,82,0.00,,,0.00,VWS V14.01,2013-07-22 01:35:00,
2013-07-21 19:40:00,84.2,78.1,29.92,NNE,13,7.0,22.0,82,0.00,,,0.00,VWS V14.01,2013-07-22 01:40:00,
2013-07-21 19:45:00,84.3,78.2,29.92,East,80,7.0,22.0,82,0.00,,,0.00,VWS V14.01,2013-07-22 01:45:00,
2013-07-21 19:50:00,84.2,78.5,29.92,NNE,12,11.0,22.0,83,0.00,,,0.00,VWS V14.01,2013-07-22 01:50:00,
2013-07-21 19:55:00,84.2,78.5,29.92,NE,50,8.0,22.0,83,0.00,,,0.00,VWS V14.01,2013-07-22 01:55:00,
2013-07-21 20:00:00,84.2,78.5,29.92,East,98,10.0,10.0,83,0.00,,,0.00,VWS V14.01,2013-07-22 02:00:00,
2013-07-21 20:05:00,84.2,78.5,29.92,ENE,64,13.0,20.0,83,0.00,,,0.00,VWS V14.01,2013-07-22 02:05:00,
2013-07-21 20:10:00,84.2,78.5,29.92,NE,56,11.0,20.0,83,0.00,,,0.00,VWS V14.01,2013-07-22 02:10:00,
2013-07-21 20:15:00,84.1,78.0,29.92,NE,49,11.0,21.0,82,0.00,,,0.00,VWS V14.01,2013-07-22 02:15:00,
2013-07-21 20:20:00,84.2,78.1,29.92,NNE,24,13.0,21.0,82,0.00,,,0.00,VWS V14.01,2013-07-22 02:20:00,
2013-07-21 20:25:00,84.2,78.5,29.92,NE,50,10.0,21.0,83,0.00,,,0.00,VWS V14.01,2013-07-22 02:25:00,
2013-07-21 20:30:00,84.1,78.0,29.92,NE,47,14.0,14.0,82,0.00,,,0.00,VWS V14.01,2013-07-22 02:30:00,
2013-07-21 20:35:00,84.1,78.0,29.92,ENE,60,10.0,23.0,82,0.00,,,0.00,VWS V14.01,2013-07-22 02:35:00,
2013-07-21 20:40:00,84.1,78.0,29.92,NE,54,17.0,23.0,82,0.00,,,0.00,VWS V14.01,2013-07-22 02:40:00,
2013-07-21 20:45:00,84.1,78.0,29.92,NE,43,8.0,23.0,82,0.00,,,0.00,VWS V14.01,2013-07-22 02:45:00,
2013-07-21 20:50:00,84.1,78.0,29.92,ENE,60,8.0,23.0,82,0.00,,,0.00,VWS V14.01,2013-07-22 02:50:00,
2013-07-21 20:55:00,84.1,77.6,29.92,ENE,60,12.0,23.0,81,0.00,,,0.00,VWS V14.01,2013-07-22 02:55:00,
2013-07-21 21:00:00,84.1,77.6,29.93,NE,37,18.0,18.0,81,0.00,,,0.00,VWS V14.01,2013-07-22 03:00:00,
2013-07-21 21:05:00,84.2,77.7,29.93,ENE,67,10.0,22.0,81,0.00,,,0.00,VWS V14.01,2013-07-22 03:05:00,
2013-07-21 21:10:00,84.1,77.6,29.93,NE,54,12.0,27.0,81,0.00,,,0.00,VWS V14.01,2013-07-22 03:10:00,
2013-07-21 21:15:00,84.2,77.7,29.93,ENE,65,11.0,27.0,81,0.00,,,0.00,VWS V14.01,2013-07-22 03:15:00,
2013-07-21 21:20:00,84.2,78.1,29.93,NE,53,15.0,27.0,82,0.00,,,0.00,VWS V14.01,2013-07-22 03:20:00,
2013-07-21 21:25:00,84.1,78.0,29.93,ENE,57,13.0,27.0,82,0.00,,,0.00,VWS V14.01,2013-07-22 03:25:00,
2013-07-21 21:30:00,84.1,78.0,29.93,ENE,59,4.0,6.0,82,0.00,,,0.00,VWS V14.01,2013-07-22 03:30:00,
2013-07-21 21:35:00,84.1,78.0,29.94,SSE,163,11.0,20.0,82,0.00,,,0.00,VWS V14.01,2013-07-22 03:35:00,
2013-07-21 21:40:00,84.1,78.0,29.94,ENE,68,10.0,21.0,82,0.00,,,0.00,VWS V14.01,2013-07-22 03:40:00,
2013-07-21 21:45:00,84.0,77.9,29.94,NE,46,13.0,21.0,82,0.00,,,0.00,VWS V14.01,2013-07-22 03:45:00,
2013-07-21 21:50:00,84.1,77.6,29.94,ENE,69,15.0,21.0,81,0.00,,,0.00,VWS V14.01,2013-07-22 03:50:00,
2013-07-21 21:55:00,84.1,77.6,29.94,NE,43,13.0,23.0,81,0.00,,,0.00,VWS V14.01,2013-07-22 03:55:00,
2013-07-21 22:00:00,84.1,78.0,29.95,NE,34,8.0,12.0,82,0.00,,,0.00,VWS V14.01,2013-07-22 04:00:00,
2013-07-21 22:01:00,84.2,78.1,29.95,NE,49,7.0,19.0,82,0.00,,,0.00,VWS V14.01,2013-07-22 04:01:00,
2013-07-21 22:06:00,84.1,77.6,29.95,ENE,62,6.0,23.0,81,0.00,,,0.00,VWS V14.01,2013-07-22 04:06:00,
2013-07-21 22:11:00,84.1,77.6,29.95,East,95,8.0,23.0,81,0.00,,,0.00,VWS V14.01,2013-07-22 04:11:00,
2013-07-21 22:16:00,84.1,77.6,29.95,ENE,77,11.0,23.0,81,0.00,,,0.00,VWS V14.01,2013-07-22 04:16:00,
2013-07-21 22:21:00,84.1,77.6,29.96,NE,56,14.0,23.0,81,0.00,,,0.00,VWS V14.01,2013-07-22 04:21:00,
2013-07-21 22:26:00,84.1,77.3,29.95,East,95,14.0,25.0,80,0.00,,,0.00,VWS V14.01,2013-07-22 04:26:00,
2013-07-21 22:31:00,84.1,77.6,29.95,NE,54,9.0,19.0,81,0.00,,,0.00,VWS V14.01,2013-07-22 04:31:00,
2013-07-21 22:36:00,84.1,77.3,29.95,East,86,9.0,24.0,80,0.00,,,0.00,VWS V14.01,2013-07-22 04:36:00,
2013-07-21 22:41:00,84.1,77.6,29.95,ENE,72,9.0,24.0,81,0.00,,,0.00,VWS V14.01,2013-07-22 04:41:00,
2013-07-21 22:46:00,84.0,77.2,29.95,ENE,69,17.0,24.0,80,0.00,,,0.00,VWS V14.01,2013-07-22 04:46:00,
2013-07-21 22:51:00,84.1,77.6,29.96,East,91,9.0,24.0,81,0.00,,,0.00,VWS V14.01,2013-07-22 04:51:00,
2013-07-21 22:56:00,84.0,77.5,29.96,NE,46,11.0,24.0,81,0.00,,,0.00,VWS V14.01,2013-07-22 04:56:00,
2013-07-21 23:01:00,84.0,77.5,29.96,NE,43,21.0,21.0,81,0.00,,,0.00,VWS V14.01,2013-07-22 05:01:00,
2013-07-21 23:06:00,84.0,77.5,29.96,NE,56,12.0,21.0,81,0.00,,,0.00,VWS V14.01,2013-07-22 05:06:00,
2013-07-21 23:11:00,83.9,77.4,29.96,East,79,8.0,21.0,81,0.00,,,0.00,VWS V14.01,2013-07-22 05:11:00,
2013-07-21 23:16:00,83.9,77.4,29.96,ENE,67,10.0,21.0,81,0.00,,,0.00,VWS V14.01,2013-07-22 05:16:00,
2013-07-21 23:21:00,83.8,77.3,29.96,NE,34,15.0,21.0,81,0.00,,,0.00,VWS V14.01,2013-07-22 05:21:00,
2013-07-21 23:26:00,83.8,77.3,29.96,ENE,66,12.0,21.0,81,0.00,,,0.00,VWS V14.01,2013-07-22 05:26:00,
2013-07-21 23:31:00,83.7,77.2,29.96,NE,41,17.0,21.0,81,0.00,,,0.00,VWS V14.01,2013-07-22 05:31:00,
2013-07-21 23:36:00,83.7,77.6,29.96,ENE,67,11.0,21.0,82,0.00,,,0.00,VWS V14.01,2013-07-22 05:36:00,
2013-07-21 23:41:00,83.6,77.5,29.96,ENE,61,10.0,21.0,82,0.00,,,0.00,VWS V14.01,2013-07-22 05:41:00,
2013-07-21 23:46:00,83.6,77.9,29.96,ENE,68,13.0,21.0,83,0.00,,,0.00,VWS V14.01,2013-07-22 05:46:00,
2013-07-21 23:51:00,83.6,77.9,29.96,ENE,61,9.0,21.0,83,0.00,,,0.00,VWS V14.01,2013-07-22 05:51:00,
2013-07-21 23:56:00,83.5,77.8,29.95,ENE,63,12.0,21.0,83,0.00,,,0.00,VWS V14.01,2013-07-22 05:56:00,